Date,TemperatureHighF,TemperatureAvgF,TemperatureLowF,DewpointHighF,DewpointAvgF,DewpointLowF,HumidityHigh,HumidityAvg,HumidityLow,PressureMaxIn,PressureMinIn,WindSpeedMaxMPH,WindSpeedAvgMPH,GustSpeedMaxMPH,PrecipitationSumIn
2013-2-1,47,37,32,43,35,30,95,91,84,30.41,30.15,0,0,0,0.02
2013-2-2,45,35,4,39,32,2,93,89,77,30.45,30.27,0,0,0,0.73
2013-2-3,42,33,30,38,31,28,93,91,86,30.28,30.11,1,0,1,0.00
2013-2-4,51,38,32,42,34,29,94,87,69,30.14,30.00,0,0,0,0.06
2013-2-5,49,40,33,42,36,30,94,86,72,30.01,29.79,12,0,12,0.04
2013-2-6,47,38,30,42,34,27,93,88,79,30.08,29.96,58,0,58,0.02
2013-2-7,34,31,30,31,28,27,93,91,90,30.00,29.93,0,0,0,0.00
2013-2-9,40,36,32,32,32,29,89,84,72,30.16,30.02,0,0,0,0.00
2013-2-10,43,35,28,36,30,23,91,83,61,30.25,30.16,10,1,10,0.02
2013-2-11,44,34,30,35,29,25,90,82,65,30.24,30.12,6,0,6,1.87
2013-2-12,49,39,31,39,33,28,89,82,66,30.31,30.17,7,0,7,3.15
2013-2-13,50,41,31,42,36,27,89,80,59,30.33,30.15,8,0,8,0.00
2013-2-14,50,38,29,38,32,25,91,78,53,30.50,30.33,8,0,8,0.61
2013-2-15,55,42,30,41,34,26,87,74,52,30.52,30.27,5,0,5,2.50
2013-2-16,55,39,27,42,33,24,90,79,54,30.29,29.88,21,2,21,0.18
2013-2-17,45,39,33,38,35,30,91,86,70,30.12,29.98,9,0,9,0.06
2013-2-18,47,37,32,36,32,28,90,81,62,30.12,29.76,7,0,7,0.00
2013-2-19,45,38,32,38,32,28,90,81,69,29.85,29.68,12,3,12,0.02
2013-2-20,42,36,27,36,31,24,89,84,72,30.02,29.85,12,3,12,0.35
2013-2-21,43,33,26,33,29,23,90,84,65,30.08,29.96,12,1,12,0.14
2013-2-22,43,37,33,39,34,30,91,89,81,30.05,29.72,9,1,9,0.10
2013-2-23,44,36,31,35,32,29,92,85,64,30.25,29.77,13,1,13,0.06
2013-2-24,47,37,31,36,30,27,89,76,55,30.36,30.12,8,1,8,0.06
2013-2-25,48,36,28,38,31,25,91,81,60,30.15,29.93,23,3,23,0.02
2013-2-26,47,37,29,35,28,23,89,74,48,30.32,30.14,9,1,9,0.00
2013-2-27,55,39,27,34,28,23,87,68,38,30.31,30.19,66,12,66,1.69
2013-2-28,44,40,36,40,36,31,90,86,76,30.39,30.26,6,0,6,0.36